This demonstration page uses our WeatherBlox Daily Observations layout. Learn more.

Hourly Observations for December 23, 2017

Temp ( °F °C ) Dew Point ( °F °C ) Humidity (%) Winds ( mph kmh ) Pressure ( in mb ) Visibility ( mi km ) Precip ( " mm )
12:13 am 00:13 Cloudy with Light Rain 50 10 50 10 100 100 N 7 11 29.97 1015 4 6.43736 0.02 0.508
12:21 am 00:21 Cloudy with Rain 50 10 49 9.4 96 96 N 10 17 29.97 1015 4 6.43736 0.03 0.762
12:53 am 00:53 Cloudy with Light Rain 48 8.9 48 8.9 100 100 VRB 3 6 29.91 1013 5 8.0467 0.06 1.524
1:04 am 01:04 Cloudy with Light Rain 48 8.9 48 8.9 100 100 NNW 3 6 29.94 1014 5 8.0467 0.01 0.254
1:13 am 01:13 Cloudy with Light Rain 48 8.9 48 8.9 100 100 N 5 7 29.94 1014 5 8.0467 0.02 0.508
1:53 am 01:53 Cloudy with Rain 48 8.9 47 8.3 96 96 N 7 11 29.91 1013 4 6.43736 0.09 2.286
2:08 am 02:08 Cloudy with Rain 46 7.8 45 7.2 96 96 N 6 9 29.94 1014 5 8.0467 0.03 0.762
2:29 am 02:29 Cloudy with Rain 45 7.2 44 6.7 97 97 N 5 7 29.94 1014 5 8.0467 0.09 2.286
2:53 am 02:53 Cloudy with Rain 44 6.7 43 6.1 96 96 N 8 13 29.91 1013 5 8.0467 0.17 4.318
3:53 am 03:53 Cloudy with Rain 42 5.6 42 5.6 100 100 NNW 7 11 29.9 1013 4 6.43736 0.16 4.064
4:18 am 04:18 Cloudy with Heavy Rain 42 5.6 41 5 96 96 N 8 13 29.91 1013 4 6.43736 0.08 2.032
4:28 am 04:28 Cloudy with Rain 41 5 41 5 100 100 N 7 11 29.91 1013 5 8.0467 0.12 3.048
4:41 am 04:41 Cloudy with Rain 41 5 41 5 100 100 NNW 6 9 29.91 1013 4 6.43736 0.16 4.064
4:48 am 04:48 Cloudy with Rain 41 5 41 5 100 100 NNW 10 17 29.91 1013 4 6.43736 0.19 4.826
4:53 am 04:53 Cloudy with Rain 41 5 40 4.4 96 96 NNW 12 19 29.88 1012 5 8.0467 0.2 5.08
5:33 am 05:33 Cloudy with Rain 40 4.4 39 3.9 97 97 N 10 17 29.91 1013 6 9.65604 0.1 2.54
5:45 am 05:45 Cloudy with Rain 40 4.4 39 3.9 97 97 N 9 15 29.91 1013 7 11.26538 0.12 3.048
5:53 am 05:53 Cloudy with Rain 40 4.4 39 3.9 97 97 NNW 13 20 29.87 1011 6 9.65604 0.14 3.556
6:23 am 06:23 Cloudy with Rain 39 3.9 39 3.9 100 100 NNE 7 11 29.85 1011 7 11.26538 0.05 1.27
6:53 am 06:53 Cloudy with Rain 39 3.9 38 3.3 96 96 N 10 17 29.87 1011 7 11.26538 0.08 2.032
7:04 am 07:04 Cloudy with Light Rain 39 3.9 39 3.9 100 100 N 9 15 29.88 1012 7 11.26538 0.01 0.254
7:25 am 07:25 Cloudy with Light Rain 39 3.9 39 3.9 100 100 N 6 9 29.91 1013 10 16.0934 0.02 0.508
7:41 am 07:41 Cloudy with Light Rain 39 3.9 38 3.3 96 96 N 12 19 29.91 1013 8 12.87472 0.03 0.762
7:53 am 07:53 Cloudy with Light Rain 38 3.3 38 3.3 100 100 N 8 13 29.88 1012 10 16.0934 0.03 0.762
8:02 am 08:02 Cloudy with Light Rain 38 3.3 38 3.3 100 100 N 10 17 29.91 1013 10 16.0934 0.01 0.254
8:53 am 08:53 Cloudy with Light Rain 37 3 N/A N/A N 7 11 29.88 1012 10 16.0934 0.01 0.254
9:53 am 09:53 Cloudy with Light Rain 37 3 N/A N/A NNW 12 19 29.91 1013 6 9.65604 0.01 0.254
10:51 am 10:51 Cloudy with Rain 36 2 N/A N/A NNW 9 15 30 1016 2.5 4.02335 0.03 0.762
10:53 am 10:53 Cloudy with Light Snow 36 2 N/A N/A NW 9 15 29.98 1015 2.5 4.02335 0.03 0.762
11:12 am 11:12 Cloudy with Light Snow 36 2 N/A N/A N 10 17 30 1016 1.75 2.816345 0.02 0.508
11:22 am 11:22 Cloudy with Light Snow 34 1 N/A N/A N 10 17 30 1016 1.5 2.41401 0.02 0.508
11:32 am 11:32 Cloudy with Light Snow 34 1 N/A N/A NNW 10 17 30 1016 1.5 2.41401 0.03 0.762
11:53 am 11:53 Cloudy with Light Snow 34 1 N/A N/A NNW 7 11 29.96 1015 1.25 2.011675 0.05 1.27
12:35 pm 12:35 Cloudy with Light Snow 34 1 N/A N/A NW 8 13 30 1016 2 3.21868 0.03 0.762
12:40 pm 12:40 Cloudy with Light Snow 34 1 N/A N/A NW 9 15 30 1016 3 4.82802 0.03 0.762
12:48 pm 12:48 Cloudy with Light Snow 34 1 N/A N/A NNW 9 15 29.97 1015 5 8.0467 0.03 0.762
12:53 pm 12:53 Cloudy with Light Snow 34 1 N/A N/A NNW 9 15 29.96 1015 6 9.65604 0.03 0.762
1:53 pm 13:53 Cloudy 37 3 N/A N/A NW 10 17 29.98 1015 10 16.0934 0 0.0254
2:22 pm 14:22 Cloudy 37 3 N/A N/A NNW 14 22 30.06 1018 10 16.0934 0 0
2:53 pm 14:53 Cloudy 37 2.8 32 0 82 82 NNW 9 15 30.05 1018 10 16.0934 0 0
3:53 pm 15:53 Cloudy 36 2.2 31 -0.6 82 82 NW 10 17 30.1 1019 9 14.48406 0 0
4:53 pm 16:53 Cloudy 36 2.2 30 -1.1 79 79 WNW 9 15 30.14 1021 9 14.48406 0 0
5:53 pm 17:53 Cloudy 36 2.2 27 -2.8 70 70 NW 6 9 30.16 1021 10 16.0934 0 0
6:53 pm 18:53 Cloudy 36 2.2 29 -1.7 76 76 Calm 30.19 1022 10 16.0934 0 0
7:53 pm 19:53 Cloudy 35 1.7 28 -2.2 76 76 NW 6 9 30.22 1023 10 16.0934 0 0
8:37 pm 20:37 Cloudy 36 2.2 26 -3.3 67 67 Calm 30.24 1024 10 16.0934 0 0
8:53 pm 20:53 Cloudy 35 1.7 29 -1.7 78 78 Calm 30.23 1024 10 16.0934 0 0
9:53 pm 21:53 Cloudy 34 1.1 28 -2.2 79 79 NW 7 11 30.23 1024 10 16.0934 0 0
10:00 pm 22:00 Cloudy 34 1.1 28 -2.2 79 79 WNW 5 7 30.24 1024 10 16.0934 0 0
10:53 pm 22:53 Cloudy 34 1.1 30 -1.1 85 85 Calm 30.24 1024 10 16.0934 0 0
11:53 pm 23:53 Cloudy 33 0.6 30 -1.1 89 89 Calm 30.23 1024 10 16.0934 0 0

Powered by AerisWeather